Погода в Ступино

Россия / Тульская область     53°08′09″N   38°31′08″E
темп.,
°C
ветер,
м/с
пор.,
м/с
влажн.,
%
обл.,
%
осадки,
мм/ч
давл.,
гПа
погр.,
м
11 мая, вт
вт1100:00+9ссв81879100 0.0 1022487
03:00+8ссв8178495 0.0 1022458
06:00+8ссв8198722 0.0 1021452
09:00+12св8138037 0.0 1021552
12:00+17всв8117198 0.0 10211191
15:00+13вюв71078100 0.3 1023880
18:00+13вюв58726 0.1 10241192
21:00+9в49835 0.1 1025178
12 мая, ср
ср1200:00+7вюв36880 0.0 1026113
03:00+6в34924 0.0 102657
06:00+7всв36895 0.0 1026159
09:00+12всв4667100 0.0 1025596
12:00+11всв6782100 0.9 1022600
15:00+12всв4476100 2.6 1021746
18:00+13вюв467514 0.0 1019863
21:00+9всв5109298 0.0 1019217
13 мая, чт
чт1300:00+10в51389100 0.0 1019341
03:00+10вюв4994100 0.3 1019288
06:00+10в3795100 0.4 1019206
09:00+14всв448198 0.4 1017433
12:00+17вюв347020 0.3 1016994
15:00+18ююв566579 1.8 10161269
18:00+17ююв367823 2.2 1015663
21:00+13ю338818 3.3 101629
14 мая, пт
пт1400:00+12ю2289100 0.0 101714
03:00+12вюв2290100 0.0 101726
06:00+13вюв3892100 0.0 1017198
09:00+18вюв6108182 0.0 1016458
12:00+22юв7964100 0.0 10151223
15:00+24юв6106348 0.0 10141511
18:00+22юв71268100 0.0 1012595
21:00+16сз1188100 7.2 101223
15 мая, сб
сб1500:00+16в3584100 1.2 101185
03:00+16вюв3896100 2.6 1010185
06:00+15в239662 4.7 1010114
09:00+17юв3794100 9.9 1009216
12:00+20ю7108260 2.2 1010915
15:00+21ююз686783 3.8 10111241
18:00+19юз5879100 3.1 1011489
21:00+15юз34890 3.9 101261